CZ-6A DEB, 54631

Orbit data source: Space-Track

CZ-6A DEB, 54631 is space debris in SSO originally from a launch on Fri, 11 Nov 2022 UTC launched from the Taiyaun Space Center, China (TSC). Debris objects in space refer to the collection of defunct objects orbiting the Earth. Examples of debris include non-operational satellites, rocket bodies, and fragments generated from explosions, collisions, or faulty payload assembly.

Loading next visibility...
Identifier
54631, 2022-151PH
Orbit
SSO
Country
Flag of CNCN / PRC
Related business
Manufacturer
SAST
Mission
Spacecraft
Bus & Motor
Unknown
Mass
Unknown
Launch date (UTC)
2022-11-11 (3 years ago)
Launch vehicle
Unknown
Launch site
Taiyaun Space Center, China (TSC)
Object type
Payload
Rocket body
Debris
Shape & HBR
Unknown shape, 0.1 m
Radar Cross Section
Small (<0.1 m²)

Expand to show TLE details & history
Last TLE update: 1 day ago

TLE from 1 day ago
0 CZ-6A DEB
1 54631U 22151PH  25352.09902430  .00008778  00000-0  16853-2 0  9999
2 54631  98.6392  37.7621 0081478 149.2719 211.3289 14.61814084162287
Epoch: 2025-12-18T02:22Z
TLE epoch observation values (Epoch: 2025-12-18T02:22:35.699Z)
Latitude
0.00002°
Longitude
-84.84605°
Altitude
739.607 km
Speed
7.459 km/s
True Right ascension
02h 31m 02s
True Declination
0° 00' 00"
Sunlit
Object was in full shadow at epoch
Visualization orbit readout
Latitude
Unknown
Longitude
Unknown
Altitude
Unknown
Speed
Unknown
Apparent Right ascension
Unknown
Apparent Declination
Unknown
Sunlit
N/A
Visualization observer readout
Local Sidereal Time
08:03:12
Azimuth
Unknown
Elevation
Unknown
Doppler factor
Unknown
Orbital elements
Apogee altitude
741.966 km
Perigee altitude
626.877 km
Semi-major axis
7,062.559 km
Eccentricity
0.00815
Inclination
98.6392°
RAAN
37.7621°
Arg. of periapsis
149.2719°
True anomaly
210.84763°
Mean anomaly
211.3289°
Eccentric anomaly
211.08785°
Mean motion
3.65679 °/min
Orbital period
98.45 mins
BSTAR
0.0016853
Loading maneuver chart data...
Computing Atmospheric mass density...

Documentation

Showing up to 5 results
|